| time (UTC) | temp F | wind direction | speed MPH | gust MPH | rain 1hr in | rain 24hr in | rain mn in | humidity % | barometer mb |
| 20260904030040 | 71 | 0 | 0.0 | 0.0 | 0.00 | 0.58 | 0.58 | 92 | 1014.0 |
| 20260904025516 | 71 | 0 | 0.0 | 0.0 | 0.00 | 0.58 | 0.58 | 92 | 1014.0 |
| 20260904025019 | 71 | 0 | 0.0 | 0.0 | 0.00 | 0.58 | 0.58 | 92 | 1013.9 |
| 20260904024537 | 71 | 0 | 0.0 | 0.0 | 0.00 | 0.58 | 0.58 | 92 | 1013.9 |
| 20260904024018 | 71 | 0 | 0.0 | 0.0 | 0.00 | 0.58 | 0.58 | 91 | 1013.9 |
| 20260904023521 | 71 | 0 | 0.0 | 0.0 | 0.00 | 0.58 | 0.58 | 91 | 1014.0 |
| 20260904023038 | 71 | 0 | 0.0 | 0.0 | 0.00 | 0.58 | 0.58 | 91 | 1013.9 |
| 20260904022516 | 71 | 0 | 0.0 | 0.0 | 0.00 | 0.58 | 0.58 | 91 | 1013.9 |
| 20260904022020 | 71 | 0 | 0.0 | 0.0 | 0.00 | 0.58 | 0.58 | 91 | 1013.8 |
| 20260904021542 | 71 | 0 | 0.0 | 0.0 | 0.00 | 0.58 | 0.58 | 91 | 1013.9 |
| 20260904021016 | 71 | 0 | 0.0 | 0.0 | 0.00 | 0.58 | 0.58 | 91 | 1013.9 |
| 20260904020516 | 71 | 0 | 0.0 | 0.0 | 0.00 | 0.58 | 0.58 | 91 | 1013.8 |
| 20260904020041 | 71 | 0 | 0.0 | 0.0 | 0.00 | 0.58 | 0.58 | 91 | 1013.8 |
| 20260904015518 | 71 | 0 | 0.0 | 0.0 | 0.00 | 0.58 | 0.58 | 91 | 1013.8 |
| 20260904015019 | 71 | 0 | 0.0 | 0.0 | 0.00 | 0.58 | 0.58 | 91 | 1013.9 |
| 20260904014545 | 71 | 0 | 0.0 | 0.0 | 0.00 | 0.58 | 0.58 | 90 | 1013.8 |
| 20260904014020 | 71 | 0 | 0.0 | 0.0 | 0.00 | 0.58 | 0.58 | 90 | 1013.7 |
| 20260904013519 | 71 | 0 | 0.0 | 0.0 | 0.00 | 0.58 | 0.58 | 90 | 1013.8 |
| 20260904013038 | 71 | 0 | 0.0 | 0.0 | 0.00 | 0.58 | 0.58 | 90 | 1013.7 |
| 20260904012526 | 71 | 0 | 0.0 | 0.0 | 0.00 | 0.58 | 0.58 | 89 | 1013.7 |
| 20260904012023 | 71 | 0 | 0.0 | 0.0 | 0.00 | 0.58 | 0.58 | 89 | 1013.6 |
| 20260904011543 | 71 | 0 | 0.0 | 0.0 | 0.00 | 0.58 | 0.58 | 88 | 1013.5 |
| 20260904011017 | 72 | 0 | 0.0 | 0.0 | 0.00 | 0.58 | 0.58 | 88 | 1013.4 |
| 20260904010520 | 72 | 0 | 0.0 | 0.0 | 0.00 | 0.58 | 0.58 | 87 | 1013.4 |
| 20260904010050 | 72 | 0 | 0.0 | 0.0 | 0.00 | 0.58 | 0.58 | 87 | 1013.2 |
| 20260904005516 | 72 | 0 | 0.0 | 0.0 | 0.00 | 0.58 | 0.58 | 86 | 1013.0 |
| 20260904005018 | 73 | 0 | 0.0 | 0.0 | 0.00 | 0.58 | 0.58 | 86 | 1013.0 |
| 20260904004545 | 73 | 0 | 0.0 | 0.0 | 0.00 | 0.58 | 0.58 | 85 | 1013.0 |
| 20260904004018 | 73 | 0 | 0.0 | 0.0 | 0.00 | 0.58 | 0.58 | 85 | 1012.8 |
| 20260904003523 | 73 | 0 | 0.0 | 2.0 | 0.00 | 0.58 | 0.58 | 84 | 1012.7 |
| 20260904003039 | 74 | 0 | 0.0 | 2.0 | 0.00 | 0.58 | 0.58 | 84 | 1012.8 |
| 20260904002516 | 74 | 0 | 0.0 | 0.0 | 0.00 | 0.58 | 0.58 | 83 | 1012.9 |
| 20260904002019 | 74 | 0 | 0.0 | 1.0 | 0.00 | 0.58 | 0.58 | 83 | 1012.9 |
| 20260904001537 | 74 | 0 | 0.0 | 1.0 | 0.00 | 0.58 | 0.58 | 83 | 1012.9 |
| 20260904001022 | 74 | 0 | 0.0 | 2.0 | 0.00 | 0.58 | 0.58 | 82 | 1012.8 |
| 20260904000519 | 74 | 0 | 0.0 | 2.0 | 0.00 | 0.58 | 0.58 | 81 | 1013.0 |
| 20260904000048 | 75 | 0 | 0.0 | 2.0 | 0.00 | 0.58 | 0.58 | 82 | 1013.0 |
| 20260903235516 | 75 | 0 | 0.0 | 3.0 | 0.00 | 0.58 | 0.58 | 81 | 1012.9 |
| 20260903235017 | 75 | 0 | 0.0 | 3.0 | 0.00 | 0.58 | 0.58 | 81 | 1012.9 |
| 20260903234542 | 75 | 0 | 0.0 | 3.0 | 0.00 | 0.58 | 0.58 | 80 | 1012.9 |
| 20260903234018 | 75 | 0 | 1.0 | 3.0 | 0.00 | 0.58 | 0.58 | 80 | 1012.9 |
| 20260903233522 | 75 | 112 | 0.0 | 2.0 | 0.00 | 0.58 | 0.58 | 81 | 1013.0 |
| 20260903233040 | 75 | 0 | 0.0 | 2.0 | 0.00 | 0.58 | 0.58 | 80 | 1013.1 |
| 20260903232519 | 76 | 0 | 0.0 | 2.0 | 0.00 | 0.58 | 0.58 | 81 | 1012.9 |
| 20260903232017 | 76 | 0 | 0.0 | 7.0 | 0.00 | 0.58 | 0.58 | 80 | 1012.9 |
| 20260903231539 | 77 | 109 | 1.0 | 7.0 | 0.00 | 0.58 | 0.58 | 79 | 1012.8 |
| 20260903231019 | 77 | 111 | 2.0 | 4.0 | 0.00 | 0.58 | 0.58 | 79 | 1012.6 |
| 20260903230516 | 77 | 109 | 1.0 | 4.0 | 0.00 | 0.58 | 0.58 | 79 | 1012.8 |
| 20260903230035 | 77 | 105 | 1.0 | 6.0 | 0.00 | 0.58 | 0.58 | 79 | 1013.0 |
| 20260903225516 | 77 | 97 | 1.0 | 6.0 | 0.00 | 0.58 | 0.58 | 80 | 1012.9 |
| 20260903225018 | 77 | 105 | 1.0 | 4.0 | 0.00 | 0.58 | 0.58 | 80 | 1012.9 |
| 20260903224542 | 77 | 128 | 2.0 | 4.0 | 0.00 | 0.58 | 0.58 | 80 | 1012.9 |
| 20260903224024 | 77 | 113 | 1.0 | 4.0 | 0.00 | 0.58 | 0.58 | 80 | 1012.9 |
| 20260903223521 | 76 | 123 | 1.0 | 5.0 | 0.00 | 0.58 | 0.58 | 81 | 1012.8 |
| 20260903223043 | 76 | 109 | 1.0 | 6.0 | 0.00 | 0.58 | 0.58 | 80 | 1012.9 |
| 20260903222518 | 76 | 0 | 1.0 | 6.0 | 0.00 | 0.58 | 0.58 | 81 | 1012.9 |
| 20260903222021 | 76 | 111 | 1.0 | 3.0 | 0.00 | 0.58 | 0.58 | 81 | 1012.9 |
| 20260903221536 | 76 | 100 | 1.0 | 3.0 | 0.00 | 0.58 | 0.58 | 81 | 1012.9 |
| 20260903221018 | 76 | 113 | 0.0 | 3.0 | 0.00 | 0.58 | 0.58 | 81 | 1013.1 |
| 20260903220518 | 76 | 0 | 0.0 | 1.0 | 0.00 | 0.58 | 0.58 | 81 | 1013.0 |
| 20260903220045 | 76 | 0 | 0.0 | 0.0 | 0.00 | 0.58 | 0.58 | 80 | 1012.9 |
| 20260903215519 | 76 | 0 | 0.0 | 3.0 | 0.00 | 0.58 | 0.58 | 79 | 1013.0 |
| 20260903215021 | 77 | 0 | 0.0 | 4.0 | 0.00 | 0.58 | 0.58 | 79 | 1013.2 |
| 20260903214542 | 77 | 0 | 1.0 | 4.0 | 0.00 | 0.58 | 0.58 | 77 | 1013.0 |
| 20260903214017 | 77 | 130 | 1.0 | 4.0 | 0.00 | 0.58 | 0.58 | 78 | 1013.1 |
| 20260903213517 | 77 | 0 | 1.0 | 7.0 | 0.00 | 0.58 | 0.58 | 78 | 1013.1 |
| 20260903213041 | 78 | 123 | 2.0 | 7.0 | 0.00 | 0.58 | 0.58 | 79 | 1012.8 |
| 20260903212522 | 78 | 96 | 1.0 | 7.0 | 0.00 | 0.58 | 0.58 | 79 | 1012.8 |
| 20260903212016 | 78 | 0 | 0.0 | 3.0 | 0.00 | 0.58 | 0.58 | 81 | 1012.8 |
| 20260903211602 | 78 | 0 | 1.0 | 3.0 | 0.00 | 0.58 | 0.58 | 82 | 1012.9 |
| 20260903211020 | 78 | 115 | 0.0 | 4.0 | 0.00 | 0.58 | 0.58 | 82 | 1012.8 |
| 20260903210516 | 78 | 32 | 0.0 | 4.0 | 0.00 | 0.58 | 0.58 | 83 | 1012.9 |
| 20260903210039 | 78 | 15 | 2.0 | 5.0 | 0.00 | 0.58 | 0.58 | 84 | 1012.9 |
| 20260903205518 | 77 | 91 | 1.0 | 5.0 | 0.00 | 0.58 | 0.58 | 84 | 1012.9 |
| 20260903205017 | 77 | 5 | 1.0 | 6.0 | 0.00 | 0.58 | 0.58 | 85 | 1013.0 |
| 20260903204539 | 77 | 86 | 2.0 | 9.0 | 0.00 | 0.58 | 0.58 | 86 | 1013.1 |
| 20260903204019 | 77 | 316 | 3.0 | 9.0 | 0.00 | 0.58 | 0.58 | 86 | 1013.2 |
| 20260903203518 | 77 | 24 | 2.0 | 5.0 | 0.00 | 0.58 | 0.58 | 87 | 1013.2 |
| 20260903203036 | 78 | 37 | 0.0 | 3.0 | 0.00 | 0.58 | 0.58 | 90 | 1013.3 |
| 20260903202517 | 77 | 0 | 0.0 | 0.0 | 0.00 | 0.58 | 0.58 | 90 | 1013.3 |
| 20260903202018 | 77 | 0 | 0.0 | 0.0 | 0.00 | 0.58 | 0.58 | 90 | 1013.1 |
| 20260903201537 | 77 | 0 | 0.0 | 0.0 | 0.00 | 0.58 | 0.58 | 90 | 1013.1 |
| 20260903201019 | 77 | 0 | 0.0 | 0.0 | 0.00 | 0.58 | 0.58 | 90 | 1013.0 |
| 20260903200516 | 77 | 0 | 0.0 | 1.0 | 0.00 | 0.58 | 0.58 | 91 | 1012.9 |
| 20260903200039 | 77 | 0 | 0.0 | 1.0 | 0.00 | 0.58 | 0.58 | 90 | 1012.8 |
| 20260903195517 | 77 | 0 | 0.0 | 1.0 | 0.00 | 0.58 | 0.58 | 90 | 1012.8 |
| 20260903195016 | 77 | 0 | 0.0 | 0.0 | 0.00 | 0.58 | 0.58 | 91 | 1012.6 |
| 20260903194544 | 77 | 0 | 0.0 | 0.0 | 0.00 | 0.58 | 0.58 | 91 | 1012.7 |
| 20260903194020 | 77 | 0 | 0.0 | 1.0 | 0.00 | 0.58 | 0.58 | 91 | 1012.7 |
| 20260903193518 | 77 | 0 | 0.0 | 3.0 | 0.00 | 0.58 | 0.58 | 90 | 1012.7 |
| 20260903193036 | 77 | 0 | 0.0 | 3.0 | 0.00 | 0.58 | 0.58 | 90 | 1012.9 |
| 20260903192516 | 77 | 0 | 0.0 | 1.0 | 0.00 | 0.58 | 0.58 | 90 | 1013.0 |
| 20260903192016 | 77 | 0 | 0.0 | 3.0 | 0.00 | 0.58 | 0.58 | 90 | 1013.0 |
| 20260903191535 | 76 | 167 | 0.0 | 3.0 | 0.00 | 0.58 | 0.58 | 91 | 1013.1 |
| 20260903191018 | 76 | 0 | 0.0 | 3.0 | 0.00 | 0.58 | 0.58 | 92 | 1013.1 |
| 20260903190517 | 76 | 0 | 0.0 | 3.0 | 0.00 | 0.58 | 0.58 | 91 | 1013.2 |
| 20260903190038 | 76 | 0 | 0.0 | 5.0 | 0.00 | 0.58 | 0.58 | 91 | 1013.2 |
| 20260903185519 | 75 | 0 | 1.0 | 5.0 | 0.00 | 0.58 | 0.58 | 92 | 1013.1 |
| 20260903185018 | 75 | 0 | 1.0 | 4.0 | 0.00 | 0.58 | 0.58 | 92 | 1013.1 |
| 20260903184540 | 75 | 199 | 1.0 | 5.0 | 0.00 | 0.58 | 0.58 | 92 | 1013.0 |
| 20260903184021 | 75 | 169 | 1.0 | 5.0 | 0.00 | 0.58 | 0.58 | 93 | 1013.0 |
| 20260903183519 | 75 | 191 | 1.0 | 5.0 | 0.01 | 0.58 | 0.58 | 95 | 1013.2 |
| 20260903183040 | 74 | 198 | 2.0 | 4.0 | 0.05 | 0.58 | 0.58 | 95 | 1013.2 |
| 20260903182520 | 73 | 216 | 0.0 | 3.0 | 0.05 | 0.58 | 0.58 | 95 | 1013.1 |
| 20260903182018 | 73 | 0 | 1.0 | 3.0 | 0.05 | 0.58 | 0.58 | 94 | 1013.1 |
| 20260903181537 | 73 | 196 | 1.0 | 3.0 | 0.05 | 0.58 | 0.58 | 94 | 1013.5 |
| 20260903181022 | 73 | 234 | 1.0 | 3.0 | 0.07 | 0.58 | 0.58 | 94 | 1013.8 |
| 20260903180516 | 73 | 265 | 0.0 | 4.0 | 0.07 | 0.58 | 0.58 | 94 | 1013.6 |
| 20260903180039 | 73 | 0 | 0.0 | 4.0 | 0.07 | 0.58 | 0.58 | 95 | 1013.7 |
| 20260903175524 | 73 | 258 | 1.0 | 2.0 | 0.07 | 0.58 | 0.58 | 95 | 1013.8 |
| 20260903175018 | 72 | 283 | 0.0 | 3.0 | 0.07 | 0.58 | 0.58 | 95 | 1013.3 |
| 20260903174557 | 72 | 9 | 0.0 | 3.0 | 0.08 | 0.58 | 0.58 | 94 | 1013.0 |
| 20260903174016 | 72 | 121 | 2.0 | 6.0 | 0.07 | 0.58 | 0.58 | 94 | 1013.2 |
| 20260903173518 | 72 | 156 | 2.0 | 6.0 | 0.07 | 0.57 | 0.57 | 95 | 1013.8 |
| 20260903173040 | 72 | 232 | 0.0 | 2.0 | 0.04 | 0.54 | 0.54 | 95 | 1013.4 |
| 20260903172519 | 71 | 0 | 0.0 | 6.0 | 0.05 | 0.54 | 0.54 | 95 | 1012.9 |
| 20260903172021 | 71 | 0 | 1.0 | 6.0 | 0.07 | 0.54 | 0.54 | 94 | 1013.1 |
| 20260903171538 | 71 | 99 | 2.0 | 5.0 | 0.07 | 0.52 | 0.52 | 94 | 1013.5 |
| 20260903171018 | 71 | 89 | 2.0 | 5.0 | 0.08 | 0.52 | 0.52 | 94 | 1014.1 |
| 20260903170517 | 71 | 219 | 1.0 | 6.0 | 0.09 | 0.52 | 0.52 | 94 | 1014.4 |
| 20260903170058 | 71 | 101 | 1.0 | 6.0 | 0.12 | 0.52 | 0.52 | 94 | 1014.5 |
| 20260903165519 | 71 | 130 | 2.0 | 6.0 | 0.13 | 0.52 | 0.52 | 94 | 1014.9 |
| 20260903165020 | 71 | 142 | 2.0 | 9.0 | 0.14 | 0.52 | 0.52 | 94 | 1014.7 |
| 20260903164548 | 71 | 181 | 3.0 | 10.0 | 0.14 | 0.51 | 0.51 | 94 | 1015.3 |
| 20260903164021 | 71 | 196 | 3.0 | 10.0 | 0.14 | 0.50 | 0.50 | 94 | 1015.8 |
| 20260903163520 | 70 | 205 | 2.0 | 7.0 | 0.14 | 0.50 | 0.50 | 94 | 1015.8 |
| 20260903163037 | 70 | 194 | 1.0 | 6.0 | 0.15 | 0.50 | 0.50 | 93 | 1015.7 |
| 20260903162517 | 70 | 190 | 2.0 | 6.0 | 0.14 | 0.49 | 0.49 | 93 | 1015.7 |
| 20260903162018 | 70 | 209 | 2.0 | 10.0 | 0.12 | 0.47 | 0.47 | 93 | 1015.6 |
| 20260903161536 | 70 | 0 | 2.0 | 10.0 | 0.10 | 0.45 | 0.45 | 93 | 1015.6 |
| 20260903161022 | 70 | 242 | 3.0 | 16.0 | 0.09 | 0.44 | 0.44 | 93 | 1015.5 |
| 20260903160519 | 70 | 226 | 4.0 | 16.0 | 0.09 | 0.43 | 0.43 | 92 | 1015.2 |
| 20260903160034 | 70 | 40 | 5.0 | 16.0 | 0.07 | 0.40 | 0.40 | 92 | 1015.4 |
| 20260903155522 | 70 | 233 | 5.0 | 13.0 | 0.06 | 0.39 | 0.39 | 92 | 1015.6 |
| 20260903155023 | 70 | 261 | 5.0 | 11.0 | 0.06 | 0.38 | 0.38 | 91 | 1015.6 |
| 20260903154541 | 70 | 248 | 5.0 | 11.0 | 0.05 | 0.37 | 0.37 | 91 | 1015.2 |
| 20260903154020 | 70 | 249 | 2.0 | 8.0 | 0.04 | 0.36 | 0.36 | 91 | 1014.8 |
| 20260903153519 | 70 | 277 | 3.0 | 8.0 | 0.05 | 0.35 | 0.35 | 90 | 1014.5 |
| 20260903153036 | 70 | 279 | 2.0 | 7.0 | 0.06 | 0.35 | 0.35 | 90 | 1014.6 |
| 20260903152518 | 70 | 236 | 2.0 | 7.0 | 0.06 | 0.35 | 0.35 | 90 | 1014.7 |
| 20260903152018 | 70 | 207 | 1.0 | 7.0 | 0.06 | 0.35 | 0.35 | 90 | 1014.7 |
| 20260903151549 | 70 | 265 | 1.0 | 7.0 | 0.06 | 0.35 | 0.35 | 89 | 1015.0 |
| 20260903151018 | 70 | 232 | 2.0 | 6.0 | 0.05 | 0.34 | 0.34 | 88 | 1014.7 |
| 20260903150519 | 70 | 330 | 1.0 | 6.0 | 0.05 | 0.34 | 0.34 | 87 | 1014.5 |
| 20260903150041 | 70 | 5 | 2.0 | 8.0 | 0.04 | 0.33 | 0.33 | 86 | 1014.5 |
| 20260903145520 | 70 | 5 | 2.0 | 18.0 | 0.04 | 0.33 | 0.33 | 85 | 1014.4 |
| 20260903145023 | 70 | 314 | 4.0 | 18.0 | 0.03 | 0.32 | 0.32 | 84 | 1014.1 |
| 20260903144541 | 71 | 344 | 10.0 | 18.0 | 0.03 | 0.32 | 0.32 | 82 | 1014.2 |
| 20260903144018 | 71 | 352 | 7.0 | 15.0 | 0.03 | 0.32 | 0.32 | 83 | 1014.2 |
| 20260903143518 | 71 | 318 | 5.0 | 22.0 | 0.00 | 0.29 | 0.29 | 80 | 1014.3 |
| 20260903143043 | 72 | 360 | 10.0 | 23.0 | 0.00 | 0.29 | 0.29 | 77 | 1014.1 |
| 20260903142518 | 71 | 5 | 7.0 | 23.0 | 0.00 | 0.29 | 0.29 | 78 | 1013.9 |
| 20260903142020 | 71 | 344 | 5.0 | 23.0 | 0.00 | 0.29 | 0.29 | 83 | 1014.2 |
| 20260903141535 | 71 | 360 | 5.0 | 18.0 | 0.00 | 0.29 | 0.29 | 83 | 1014.4 |
| 20260903141021 | 71 | 352 | 3.0 | 24.0 | 0.00 | 0.29 | 0.29 | 82 | 1014.9 |
| 20260903140521 | 72 | 333 | 10.0 | 37.0 | 0.00 | 0.29 | 0.29 | 81 | 1014.4 |
| 20260903140034 | 72 | 338 | 17.0 | 37.0 | 0.00 | 0.29 | 0.29 | 81 | 1014.6 |
| 20260903135518 | 71 | 324 | 19.0 | 37.0 | 0.00 | 0.29 | 0.29 | 83 | 1014.4 |
| 20260903135018 | 70 | 352 | 11.0 | 22.0 | 0.00 | 0.29 | 0.29 | 90 | 1014.2 |
| 20260903134535 | 70 | 18 | 6.0 | 15.0 | 0.00 | 0.29 | 0.29 | 91 | 1014.4 |
| 20260903134022 | 70 | 304 | 3.0 | 14.0 | 0.00 | 0.29 | 0.29 | 91 | 1014.1 |
| 20260903133519 | 70 | 352 | 5.0 | 14.0 | 0.00 | 0.29 | 0.29 | 91 | 1014.2 |
| 20260903133046 | 71 | 17 | 5.0 | 17.0 | 0.00 | 0.29 | 0.29 | 92 | 1014.5 |
| 20260903132520 | 72 | 352 | 7.0 | 17.0 | 0.00 | 0.29 | 0.29 | 93 | 1014.4 |
| 20260903132019 | 73 | 307 | 6.0 | 15.0 | 0.00 | 0.29 | 0.29 | 94 | 1014.1 |
| 20260903131534 | 74 | 25 | 4.0 | 12.0 | 0.00 | 0.29 | 0.29 | 95 | 1013.9 |
| 20260903131016 | 74 | 298 | 3.0 | 9.0 | 0.00 | 0.29 | 0.29 | 96 | 1013.8 |
| 20260903130518 | 74 | 0 | 0.0 | 1.0 | 0.00 | 0.29 | 0.29 | 96 | 1012.7 |
| 20260903130036 | 74 | 0 | 0.0 | 3.0 | 0.00 | 0.29 | 0.29 | 96 | 1012.5 |
| 20260903125516 | 74 | 0 | 0.0 | 5.0 | 0.00 | 0.29 | 0.29 | 96 | 1012.6 |
| 20260903125018 | 75 | 211 | 1.0 | 5.0 | 0.00 | 0.29 | 0.29 | 96 | 1012.3 |
| 20260903124540 | 74 | 0 | 0.0 | 0.0 | 0.00 | 0.29 | 0.29 | 96 | 1012.1 |
| 20260903124018 | 74 | 0 | 0.0 | 0.0 | 0.00 | 0.29 | 0.29 | 96 | 1012.2 |
| 20260903123518 | 74 | 0 | 0.0 | 0.0 | 0.00 | 0.29 | 0.29 | 96 | 1012.2 |
| 20260903123036 | 74 | 0 | 0.0 | 0.0 | 0.00 | 0.29 | 0.29 | 96 | 1012.3 |
| 20260903122521 | 73 | 0 | 0.0 | 0.0 | 0.00 | 0.29 | 0.29 | 96 | 1012.3 |
| 20260903122019 | 73 | 0 | 0.0 | 0.0 | 0.00 | 0.29 | 0.29 | 96 | 1012.3 |
| 20260903121536 | 73 | 0 | 0.0 | 0.0 | 0.00 | 0.29 | 0.29 | 96 | 1012.3 |
| 20260903121018 | 73 | 0 | 0.0 | 0.0 | 0.00 | 0.29 | 0.29 | 96 | 1012.3 |
| 20260903120516 | 73 | 0 | 0.0 | 0.0 | 0.00 | 0.29 | 0.29 | 96 | 1012.4 |
| 20260903120034 | 72 | 0 | 0.0 | 0.0 | 0.00 | 0.29 | 0.29 | 96 | 1012.4 |
| 20260903115518 | 72 | 0 | 0.0 | 0.0 | 0.00 | 0.29 | 0.29 | 96 | 1012.3 |
| 20260903115023 | 72 | 0 | 0.0 | 0.0 | 0.00 | 0.29 | 0.29 | 96 | 1012.3 |
| 20260903114539 | 72 | 0 | 0.0 | 0.0 | 0.00 | 0.29 | 0.29 | 95 | 1012.3 |
| 20260903114017 | 72 | 0 | 0.0 | 0.0 | 0.00 | 0.29 | 0.29 | 96 | 1012.3 |
| 20260903113518 | 72 | 0 | 0.0 | 0.0 | 0.00 | 0.29 | 0.29 | 96 | 1012.4 |
| 20260903113034 | 72 | 0 | 0.0 | 0.0 | 0.00 | 0.29 | 0.29 | 96 | 1012.4 |
| 20260903112516 | 72 | 0 | 0.0 | 0.0 | 0.00 | 0.29 | 0.29 | 96 | 1012.5 |
| 20260903112020 | 71 | 0 | 0.0 | 0.0 | 0.00 | 0.29 | 0.29 | 96 | 1012.4 |
| 20260903111557 | 71 | 0 | 0.0 | 0.0 | 0.00 | 0.29 | 0.29 | 95 | 1012.5 |
| 20260903111016 | 71 | 0 | 0.0 | 0.0 | 0.00 | 0.29 | 0.29 | 95 | 1012.4 |
| 20260903110516 | 71 | 0 | 0.0 | 0.0 | 0.00 | 0.29 | 0.29 | 95 | 1012.4 |
| 20260903110041 | 71 | 0 | 0.0 | 0.0 | 0.00 | 0.29 | 0.29 | 95 | 1012.4 |
| 20260903105519 | 71 | 0 | 0.0 | 0.0 | 0.00 | 0.29 | 0.29 | 95 | 1012.3 |
| 20260903105018 | 71 | 0 | 0.0 | 0.0 | 0.00 | 0.29 | 0.29 | 95 | 1012.4 |
| 20260903104547 | 71 | 0 | 0.0 | 0.0 | 0.00 | 0.29 | 0.29 | 95 | 1012.3 |
| 20260903104016 | 71 | 0 | 0.0 | 0.0 | 0.00 | 0.29 | 0.29 | 95 | 1012.3 |
| 20260903103516 | 71 | 0 | 0.0 | 0.0 | 0.00 | 0.29 | 0.29 | 94 | 1012.4 |
| 20260903103034 | 71 | 0 | 0.0 | 0.0 | 0.00 | 0.29 | 0.29 | 95 | 1012.4 |
| 20260903102516 | 71 | 0 | 0.0 | 0.0 | 0.00 | 0.29 | 0.29 | 95 | 1012.4 |
| 20260903102016 | 71 | 0 | 0.0 | 0.0 | 0.00 | 0.29 | 0.29 | 95 | 1012.4 |
| 20260903101543 | 71 | 0 | 0.0 | 0.0 | 0.00 | 0.29 | 0.29 | 95 | 1012.5 |
| 20260903101019 | 71 | 0 | 0.0 | 0.0 | 0.00 | 0.29 | 0.29 | 94 | 1012.5 |
| 20260903100519 | 72 | 0 | 0.0 | 0.0 | 0.00 | 0.29 | 0.29 | 94 | 1012.5 |
| 20260903100040 | 72 | 0 | 0.0 | 0.0 | 0.00 | 0.29 | 0.29 | 95 | 1012.5 |
| 20260903095517 | 72 | 0 | 0.0 | 0.0 | 0.00 | 0.29 | 0.29 | 95 | 1012.6 |
| 20260903095016 | 72 | 0 | 0.0 | 0.0 | 0.00 | 0.29 | 0.29 | 95 | 1012.6 |
| 20260903094536 | 72 | 0 | 0.0 | 0.0 | 0.00 | 0.29 | 0.29 | 95 | 1012.7 |
| 20260903094019 | 72 | 0 | 0.0 | 0.0 | 0.00 | 0.29 | 0.29 | 95 | 1012.7 |
| 20260903093524 | 72 | 0 | 0.0 | 0.0 | 0.00 | 0.29 | 0.29 | 95 | 1012.7 |
| 20260903093041 | 72 | 0 | 0.0 | 0.0 | 0.00 | 0.29 | 0.29 | 95 | 1012.7 |
| 20260903092516 | 72 | 0 | 0.0 | 0.0 | 0.00 | 0.29 | 0.29 | 95 | 1012.7 |
| 20260903092016 | 72 | 0 | 0.0 | 0.0 | 0.00 | 0.29 | 0.29 | 94 | 1012.6 |
| 20260903091534 | 72 | 0 | 0.0 | 0.0 | 0.00 | 0.29 | 0.29 | 94 | 1012.6 |
| 20260903091017 | 72 | 0 | 0.0 | 0.0 | 0.00 | 0.29 | 0.29 | 94 | 1012.5 |
| 20260903090518 | 72 | 0 | 0.0 | 0.0 | 0.00 | 0.29 | 0.29 | 94 | 1012.6 |
| 20260903090047 | 72 | 0 | 0.0 | 0.0 | 0.00 | 0.29 | 0.29 | 94 | 1012.4 |
| 20260903085517 | 72 | 0 | 0.0 | 0.0 | 0.00 | 0.29 | 0.29 | 94 | 1012.7 |
| 20260903085017 | 72 | 0 | 0.0 | 0.0 | 0.00 | 0.29 | 0.29 | 94 | 1012.6 |
| 20260903084536 | 72 | 0 | 0.0 | 0.0 | 0.00 | 0.29 | 0.29 | 94 | 1012.5 |
| 20260903084018 | 72 | 0 | 0.0 | 0.0 | 0.00 | 0.29 | 0.29 | 94 | 1012.6 |
| 20260903083519 | 72 | 0 | 0.0 | 0.0 | 0.00 | 0.29 | 0.29 | 94 | 1012.6 |
| 20260903083037 | 72 | 0 | 0.0 | 0.0 | 0.00 | 0.29 | 0.29 | 94 | 1012.6 |
| 20260903082519 | 73 | 0 | 0.0 | 0.0 | 0.00 | 0.29 | 0.29 | 94 | 1012.5 |
| 20260903082017 | 73 | 0 | 0.0 | 0.0 | 0.00 | 0.29 | 0.29 | 94 | 1012.6 |
| 20260903081535 | 73 | 0 | 0.0 | 0.0 | 0.00 | 0.29 | 0.29 | 94 | 1012.5 |
| 20260903081020 | 73 | 0 | 0.0 | 0.0 | 0.00 | 0.29 | 0.29 | 94 | 1012.5 |
| 20260903080517 | 72 | 0 | 0.0 | 0.0 | 0.17 | 0.29 | 0.29 | 93 | 1012.5 |
| 20260903080038 | 73 | 0 | 0.0 | 0.0 | 0.29 | 0.29 | 0.29 | 93 | 1012.4 |
| 20260903075519 | 73 | 0 | 0.0 | 0.0 | 0.29 | 0.29 | 0.29 | 93 | 1012.4 |
| 20260903075019 | 73 | 0 | 0.0 | 0.0 | 0.29 | 0.29 | 0.29 | 93 | 1012.5 |
| 20260903074537 | 73 | 0 | 0.0 | 0.0 | 0.29 | 0.29 | 0.29 | 93 | 1012.5 |
| 20260903074016 | 73 | 0 | 0.0 | 0.0 | 0.29 | 0.29 | 0.29 | 92 | 1012.4 |
| 20260903073521 | 73 | 0 | 0.0 | 0.0 | 0.29 | 0.29 | 0.29 | 92 | 1012.4 |
| 20260903073043 | 73 | 0 | 0.0 | 2.0 | 0.29 | 0.29 | 0.29 | 92 | 1012.4 |
| 20260903072517 | 73 | 0 | 0.0 | 3.0 | 0.29 | 0.29 | 0.29 | 92 | 1012.5 |
| 20260903072016 | 73 | 246 | 1.0 | 7.0 | 0.29 | 0.29 | 0.29 | 91 | 1012.4 |
| 20260903071537 | 73 | 245 | 0.0 | 29.0 | 0.29 | 0.29 | 0.29 | 91 | 1012.3 |
| 20260903071017 | 73 | 154 | 5.0 | 29.0 | 0.28 | 0.28 | 0.28 | 90 | 1012.4 |
| 20260903070519 | 74 | 148 | 3.0 | 12.0 | 0.03 | 0.03 | 0.03 | 93 | 1014.3 |
| 20260903070043 | 74 | 0 | 0.0 | 0.0 | 0.00 | 0.00 | 0.00 | 92 | 1012.5 |
| 20260903065517 | 74 | 0 | 0.0 | 0.0 | 0.00 | 0.00 | 0.00 | 92 | 1012.5 |
| 20260903065018 | 75 | 0 | 0.0 | 0.0 | 0.00 | 0.00 | 0.00 | 92 | 1012.5 |
| 20260903064533 | 75 | 0 | 0.0 | 0.0 | 0.00 | 0.00 | 0.00 | 92 | 1012.6 |
| 20260903064016 | 75 | 0 | 0.0 | 0.0 | 0.00 | 0.00 | 0.00 | 92 | 1012.7 |
| 20260903063516 | 75 | 0 | 0.0 | 0.0 | 0.00 | 0.00 | 0.00 | 93 | 1012.7 |
| 20260903063035 | 75 | 0 | 0.0 | 0.0 | 0.00 | 0.00 | 0.00 | 93 | 1012.8 |
| 20260903062520 | 75 | 0 | 0.0 | 0.0 | 0.00 | 0.00 | 0.00 | 93 | 1012.7 |
| 20260903062019 | 76 | 0 | 0.0 | 0.0 | 0.00 | 0.00 | 0.00 | 93 | 1012.6 |
| 20260903061554 | 76 | 0 | 0.0 | 0.0 | 0.00 | 0.00 | 0.00 | 92 | 1012.7 |
| 20260903061019 | 76 | 0 | 0.0 | 0.0 | 0.00 | 0.00 | 0.00 | 92 | 1012.9 |
| 20260903060519 | 76 | 0 | 0.0 | 0.0 | 0.00 | 0.00 | 0.00 | 92 | 1012.8 |
| 20260903060039 | 76 | 0 | 0.0 | 0.0 | 0.00 | 0.00 | 0.00 | 92 | 1012.7 |
| 20260903055516 | 76 | 0 | 0.0 | 0.0 | 0.00 | 0.00 | 0.00 | 92 | 1012.7 |
| 20260903055017 | 76 | 0 | 0.0 | 0.0 | 0.00 | 0.00 | 0.00 | 92 | 1012.8 |
| 20260903054535 | 76 | 0 | 0.0 | 0.0 | 0.00 | 0.00 | 0.00 | 92 | 1012.8 |
| 20260903054016 | 76 | 0 | 0.0 | 0.0 | 0.00 | 0.00 | 0.00 | 92 | 1012.8 |
| 20260903053516 | 77 | 0 | 0.0 | 0.0 | 0.00 | 0.00 | 0.00 | 92 | 1012.8 |
| 20260903053035 | 77 | 0 | 0.0 | 0.0 | 0.00 | 0.00 | 0.00 | 92 | 1012.9 |
| 20260903052516 | 77 | 0 | 0.0 | 0.0 | 0.00 | 0.00 | 0.00 | 91 | 1012.9 |
| 20260903052016 | 77 | 0 | 0.0 | 0.0 | 0.00 | 0.00 | 0.00 | 92 | 1012.8 |
| 20260903051541 | 77 | 0 | 0.0 | 0.0 | 0.00 | 0.00 | 0.00 | 92 | 1012.9 |
| 20260903051021 | 77 | 0 | 0.0 | 0.0 | 0.00 | 0.00 | 0.00 | 92 | 1012.8 |
| 20260903050520 | 77 | 0 | 0.0 | 1.0 | 0.00 | 0.00 | 0.00 | 92 | 1012.8 |
| 20260903050042 | 77 | 0 | 0.0 | 1.0 | 0.00 | 0.00 | 0.00 | 92 | 1012.7 |
| 20260903045516 | 77 | 0 | 0.0 | 0.0 | 0.00 | 0.00 | 0.00 | 92 | 1012.7 |
| 20260903045015 | 77 | 0 | 0.0 | 0.0 | 0.00 | 0.00 | 0.00 | 92 | 1012.7 |
| 20260903044533 | 77 | 0 | 0.0 | 0.0 | 0.00 | 0.00 | 0.00 | 92 | 1012.5 |
| 20260903044018 | 77 | 0 | 0.0 | 0.0 | 0.00 | 0.00 | 0.00 | 92 | 1012.5 |
| 20260903043515 | 77 | 0 | 0.0 | 0.0 | 0.00 | 0.00 | 0.00 | 92 | 1012.5 |
| 20260903043042 | 77 | 0 | 0.0 | 0.0 | 0.00 | 0.00 | 0.00 | 92 | 1012.4 |
| 20260903042517 | 77 | 0 | 0.0 | 0.0 | 0.00 | 0.00 | 0.00 | 92 | 1012.4 |
| 20260903042017 | 77 | 0 | 0.0 | 0.0 | 0.00 | 0.00 | 0.00 | 92 | 1012.5 |
| 20260903041539 | 77 | 0 | 0.0 | 0.0 | 0.00 | 0.00 | 0.00 | 92 | 1012.4 |
| 20260903041018 | 77 | 0 | 0.0 | 0.0 | 0.00 | 0.00 | 0.00 | 92 | 1012.3 |
| 20260903040516 | 77 | 0 | 0.0 | 0.0 | 0.00 | 0.00 | 0.00 | 91 | 1012.4 |
| 20260903040037 | 77 | 0 | 0.0 | 0.0 | 0.00 | 0.00 | 0.00 | 91 | 1012.4 |
| 20260903035522 | 77 | 0 | 0.0 | 0.0 | 0.00 | 0.00 | 0.00 | 91 | 1012.4 |
| 20260903035015 | 77 | 0 | 0.0 | 0.0 | 0.00 | 0.00 | 0.00 | 91 | 1012.4 |
| 20260903034533 | 76 | 0 | 0.0 | 0.0 | 0.00 | 0.00 | 0.00 | 91 | 1012.4 |
| 20260903034017 | 76 | 0 | 0.0 | 0.0 | 0.00 | 0.00 | 0.00 | 91 | 1012.3 |
| 20260903033524 | 76 | 0 | 0.0 | 0.0 | 0.00 | 0.00 | 0.00 | 91 | 1012.5 |
| 20260903033043 | 76 | 0 | 0.0 | 0.0 | 0.00 | 0.00 | 0.00 | 91 | 1012.4 |
| 20260903032520 | 76 | 0 | 0.0 | 0.0 | 0.00 | 0.00 | 0.00 | 90 | 1012.4 |
| 20260903032016 | 76 | 0 | 0.0 | 0.0 | 0.00 | 0.00 | 0.00 | 89 | 1012.5 |
| 20260903031534 | 76 | 0 | 0.0 | 0.0 | 0.00 | 0.00 | 0.00 | 89 | 1012.5 |
| 20260903031019 | 76 | 0 | 0.0 | 0.0 | 0.00 | 0.00 | 0.00 | 89 | 1012.5 |
| 20260903030519 | 76 | 0 | 0.0 | 0.0 | 0.00 | 0.00 | 0.00 | 89 | 1012.4 |